GTI1474 OMDB-KSDF

Flight info

Callsign GTI1474
Flight time N/A
Altitude 28000
Route RIDAP M557 TUMAK L602 RALKA G795 TASMI UL602 GADSI UM860 RESAK/N0499F300 UM860 ODALI UL852 NEGEM T746 ARGES DCT NEPOT/N0489F320 DCT PATAK DCT ODNEM DCT ELMEK DCT VEXIL DCT KATCE DCT HMM L602 SPY DCT RAVLO Y70 OTBED DCT NISBI DCT DOPEK DCT ARTIX DCT MOGMO DCT MAMUL L60 PENIL M144 BAGSO DCT TOBOR/M084F340 DCT 53N020W 53N030W 5230N04000W 50N050W DCT ELSIR/N0487F340 DCT YQX DCT KB03E/N0488F360 DCT DKK DCT DJB DCT RINTE DLAMP8
Aircraft B77L/H-SDE1E2E3FGHIJ2J3J4J5M1RWXY/LB1D1

Departure

Time 2026-05-08 01:17
Airport Dubai International Airport (OMDB)

Arrival

Time N/A
Airport Louisville Muhammad Ali International Airport (KSDF)
Time Latitude Longitude Altitude Speed Heading
2026-05-08 00:54 25.26165 55.36285 25 ft 0 kts 31°
2026-05-08 01:08 25.26159 55.36281 15 ft 2 kts 31°
2026-05-08 01:09 25.26145 55.36271 19 ft 2 kts 36°
2026-05-08 01:09 25.26132 55.36259 24 ft 2 kts 43°
2026-05-08 01:09 25.26121 55.36246 29 ft 2 kts 56°
2026-05-08 01:09 25.26114 55.36230 27 ft 2 kts 80°
2026-05-08 01:10 25.26114 55.36212 28 ft 2 kts 109°
2026-05-08 01:10 25.26119 55.36200 28 ft 1 kts 119°
2026-05-08 01:10 25.26120 55.36198 28 ft 0 kts 119°
2026-05-08 01:14 25.26082 55.36266 24 ft 17 kts 121°
2026-05-08 01:14 25.25991 55.36317 25 ft 17 kts 208°
2026-05-08 01:14 25.25888 55.36246 19 ft 17 kts 212°
2026-05-08 01:14 25.25784 55.36178 17 ft 17 kts 210°
2026-05-08 01:15 25.25682 55.36107 13 ft 17 kts 228°
2026-05-08 01:15 25.25727 55.35993 9 ft 18 kts 309°
2026-05-08 01:15 25.25725 55.35923 5 ft 0 kts 205°
2026-05-08 01:15 25.25723 55.35922 5 ft 2 kts 205°
2026-05-08 01:16 25.25665 55.35892 3 ft 16 kts 205°
2026-05-08 01:16 25.25574 55.35913 4 ft 16 kts 118°
2026-05-08 01:16 25.25550 55.35961 5 ft 0 kts 120°
2026-05-08 01:16 25.25537 55.35984 6 ft 20 kts 120°
2026-05-08 01:17 25.25325 55.36367 6 ft 96 kts 122°
2026-05-08 01:17 25.24842 55.37227 18 ft 164 kts 121°
2026-05-08 01:17 25.24104 55.38436 229 ft 196 kts 124°
2026-05-08 01:17 25.23387 55.39747 668 ft 211 kts 121°
2026-05-08 01:18 25.22619 55.41181 1020 ft 228 kts 121°
2026-05-08 01:18 25.21770 55.42732 1441 ft 242 kts 121°
2026-05-08 01:18 25.20697 55.44166 1831 ft 244 kts 152°
2026-05-08 01:18 25.19115 55.44720 1920 ft 247 kts 186°
2026-05-08 01:19 25.17530 55.44187 2296 ft 234 kts 217°
2026-05-08 01:19 25.16146 55.43164 2542 ft 245 kts 216°
2026-05-08 01:19 25.14820 55.41974 2837 ft 246 kts 237°
2026-05-08 01:19 25.14202 55.40234 3204 ft 245 kts 264°
2026-05-08 01:20 25.14216 55.38350 3565 ft 251 kts 275°
2026-05-08 01:20 25.14396 55.36383 3871 ft 263 kts 275°
2026-05-08 01:20 25.14593 55.34339 4228 ft 272 kts 275°
2026-05-08 01:20 25.14786 55.32255 4689 ft 277 kts 275°
2026-05-08 01:21 25.14990 55.30116 5197 ft 280 kts 278°
2026-05-08 01:21 25.15417 55.28021 5687 ft 284 kts 285°
2026-05-08 01:21 25.15979 55.25902 6225 ft 287 kts 285°
2026-05-08 01:21 25.16544 55.23762 6706 ft 290 kts 287°
2026-05-08 01:22 25.17366 55.21753 7120 ft 293 kts 300°
2026-05-08 01:22 25.18474 55.19827 7626 ft 296 kts 302°
2026-05-08 01:22 25.19600 55.17945 8168 ft 298 kts 302°
2026-05-08 01:22 25.20727 55.16014 8682 ft 301 kts 301°
2026-05-08 01:23 25.21853 55.14036 9130 ft 306 kts 301°
2026-05-08 01:23 25.22992 55.12015 9598 ft 310 kts 301°
2026-05-08 01:23 25.24126 55.09996 10008 ft 313 kts 301°
2026-05-08 01:23 25.25282 55.07932 9987 ft 316 kts 301°
2026-05-08 01:24 25.26427 55.05887 10024 ft 314 kts 301°
2026-05-08 01:24 25.27583 55.03820 10020 ft 314 kts 301°
2026-05-08 01:24 25.28738 55.01755 10226 ft 326 kts 301°
2026-05-08 01:24 25.29957 54.99575 10346 ft 342 kts 300°
2026-05-08 01:25 25.31248 54.97263 10476 ft 360 kts 300°
2026-05-08 01:25 25.32584 54.94870 10644 ft 375 kts 300°
2026-05-08 01:25 25.33989 54.92352 10959 ft 385 kts 301°
2026-05-08 01:25 25.35302 54.89770 11287 ft 389 kts 292°
2026-05-08 01:26 25.36214 54.86951 11679 ft 395 kts 285°
2026-05-08 01:26 25.36957 54.84023 12288 ft 396 kts 284°
2026-05-08 01:26 25.37701 54.81050 12775 ft 401 kts 285°
2026-05-08 01:26 25.38498 54.78063 13261 ft 406 kts 286°
2026-05-08 01:27 25.39331 54.75101 13761 ft 409 kts 287°
2026-05-08 01:27 25.40205 54.72051 14239 ft 412 kts 287°
2026-05-08 01:27 25.41073 54.69049 14720 ft 415 kts 287°
2026-05-08 01:27 25.41952 54.66020 15213 ft 417 kts 287°
2026-05-08 01:28 25.42837 54.62961 15701 ft 419 kts 287°
2026-05-08 01:28 25.43738 54.59853 16185 ft 422 kts 287°
2026-05-08 01:28 25.44640 54.56778 16654 ft 424 kts 287°
2026-05-08 01:28 25.45564 54.53644 17115 ft 427 kts 287°
2026-05-08 01:29 25.46492 54.50497 17610 ft 429 kts 287°
2026-05-08 01:29 25.47413 54.47367 18061 ft 432 kts 287°
2026-05-08 01:29 25.48348 54.44182 18456 ft 434 kts 287°
2026-05-08 01:29 25.49275 54.41020 18874 ft 436 kts 287°
2026-05-08 01:30 25.50215 54.37809 19309 ft 437 kts 287°
2026-05-08 01:30 25.51142 54.34636 19773 ft 437 kts 287°
2026-05-08 01:30 25.52086 54.31407 20179 ft 439 kts 286°
2026-05-08 01:30 25.53020 54.28207 20547 ft 441 kts 286°
2026-05-08 01:31 25.53973 54.24940 20919 ft 444 kts 286°
2026-05-08 01:31 25.54922 54.21703 21308 ft 446 kts 287°
2026-05-08 01:31 25.55897 54.18412 21689 ft 448 kts 287°
2026-05-08 01:31 25.56861 54.15161 22058 ft 449 kts 287°
2026-05-08 01:32 25.57839 54.11856 22419 ft 452 kts 287°
2026-05-08 01:32 25.58825 54.08518 22790 ft 454 kts 287°
2026-05-08 01:32 25.59797 54.05203 23136 ft 456 kts 286°
2026-05-08 01:32 25.60749 54.01873 23463 ft 457 kts 286°
2026-05-08 01:33 25.61704 53.98493 23769 ft 459 kts 285°
2026-05-08 01:33 25.62660 53.95103 24095 ft 459 kts 285°
2026-05-08 01:33 25.63607 53.91744 24421 ft 459 kts 285°
2026-05-08 01:33 25.64566 53.88349 24746 ft 460 kts 285°
2026-05-08 01:34 25.65520 53.84976 25046 ft 461 kts 285°
2026-05-08 01:34 25.66487 53.81554 25345 ft 463 kts 285°
2026-05-08 01:34 25.67446 53.78157 25631 ft 464 kts 285°
2026-05-08 01:34 25.68403 53.74766 25938 ft 465 kts 285°
2026-05-08 01:35 25.69374 53.71322 26260 ft 466 kts 285°
2026-05-08 01:35 25.70342 53.67879 26570 ft 466 kts 285°
2026-05-08 01:35 25.71303 53.64456 26855 ft 468 kts 285°
2026-05-08 01:35 25.72264 53.61030 27127 ft 469 kts 285°
2026-05-08 01:36 25.73238 53.57555 27405 ft 470 kts 285°
2026-05-08 01:36 25.74203 53.54110 27671 ft 472 kts 284°
2026-05-08 01:36 25.75185 53.50598 27763 ft 475 kts 285°
2026-05-08 01:36 25.76166 53.47110 27791 ft 479 kts 285°
2026-05-08 01:37 25.77164 53.43581 27800 ft 482 kts 285°
2026-05-08 01:37 25.78175 53.40007 27804 ft 486 kts 285°
2026-05-08 01:37 25.79193 53.36404 27800 ft 489 kts 285°
2026-05-08 01:37 25.80204 53.32821 27799 ft 490 kts 285°
2026-05-08 01:38 25.81228 53.29185 27796 ft 490 kts 285°
2026-05-08 01:38 25.82249 53.25556 27792 ft 491 kts 284°
2026-05-08 01:38 25.83255 53.21972 27793 ft 491 kts 284°
2026-05-08 01:38 25.84317 53.18352 27792 ft 491 kts 287°
2026-05-08 01:39 25.85624 53.14878 27794 ft 493 kts 292°
2026-05-08 01:39 25.87067 53.11406 27788 ft 492 kts 292°
2026-05-08 01:39 25.88499 53.07961 27789 ft 492 kts 291°
2026-05-08 01:39 25.89919 53.04516 27796 ft 491 kts 291°
2026-05-08 01:40 25.91323 53.01078 27795 ft 491 kts 291°
2026-05-08 01:40 25.92261 52.98772 27794 ft 491 kts 291°
2026-05-08 01:40 25.94128 52.94159 27795 ft 490 kts 291°
2026-05-08 01:40 25.95057 52.91860 27798 ft 490 kts 291°
2026-05-08 01:41 25.96448 52.88417 27793 ft 490 kts 291°
2026-05-08 01:41 25.97853 52.84936 27794 ft 490 kts 291°
2026-05-08 01:41 25.99238 52.81503 27794 ft 490 kts 291°
2026-05-08 01:41 26.00645 52.78017 27796 ft 490 kts 291°
2026-05-08 01:42 26.02037 52.74566 27800 ft 491 kts 291°
2026-05-08 01:42 26.03493 52.71143 27803 ft 491 kts 293°
2026-05-08 01:42 26.05026 52.67784 27793 ft 492 kts 294°
2026-05-08 01:42 26.06612 52.64369 27795 ft 492 kts 294°
2026-05-08 01:43 26.08666 52.59892 27794 ft 491 kts 293°
2026-05-08 01:43 26.09691 52.57623 27793 ft 491 kts 293°
2026-05-08 01:43 26.11230 52.54194 27794 ft 491 kts 293°
2026-05-08 01:43 26.12747 52.50820 27794 ft 491 kts 293°
2026-05-08 01:44 26.14279 52.47437 27791 ft 491 kts 293°
2026-05-08 01:44 26.15814 52.44057 27792 ft 491 kts 293°
2026-05-08 01:44 26.17350 52.40670 27802 ft 491 kts 293°
2026-05-08 01:44 26.18899 52.37248 27801 ft 491 kts 293°
2026-05-08 01:45 26.20428 52.33866 27794 ft 491 kts 293°
2026-05-08 01:45 26.21972 52.30444 27794 ft 491 kts 293°
2026-05-08 01:45 26.23476 52.27045 27803 ft 491 kts 292°
2026-05-08 01:45 26.24946 52.23643 27798 ft 491 kts 292°
2026-05-08 01:46 26.26430 52.20185 27794 ft 491 kts 292°
2026-05-08 01:46 26.27897 52.16772 27794 ft 491 kts 292°
2026-05-08 01:46 26.29375 52.13345 27796 ft 491 kts 292°
2026-05-08 01:46 26.30869 52.09887 27795 ft 492 kts 292°
2026-05-08 01:47 26.32343 52.06475 27805 ft 492 kts 292°
2026-05-08 01:47 26.33827 52.03013 27799 ft 492 kts 291°
2026-05-08 01:47 26.35288 51.99587 27796 ft 492 kts 291°
2026-05-08 01:48 26.38144 51.92646 27793 ft 490 kts 287°
2026-05-08 01:48 26.39302 51.89087 27809 ft 489 kts 286°
2026-05-08 01:48 26.40465 51.85501 27806 ft 489 kts 287°
2026-05-08 01:48 26.41643 51.81957 27796 ft 490 kts 287°
2026-05-08 01:49 26.42840 51.78426 27803 ft 490 kts 287°
2026-05-08 01:49 26.44059 51.74845 27800 ft 490 kts 287°
2026-05-08 01:49 26.45256 51.71309 27819 ft 490 kts 287°
2026-05-08 01:49 26.46468 51.67716 27811 ft 490 kts 287°
2026-05-08 01:50 26.47666 51.64190 27806 ft 490 kts 287°
2026-05-08 01:50 26.48864 51.60642 27805 ft 489 kts 287°
2026-05-08 01:50 26.50049 51.57084 27800 ft 489 kts 286°
2026-05-08 01:50 26.51233 51.53505 27800 ft 488 kts 286°
2026-05-08 01:51 26.52403 51.49964 27806 ft 488 kts 286°
2026-05-08 01:51 26.53588 51.46379 27810 ft 488 kts 286°
2026-05-08 01:51 26.54759 51.42841 27812 ft 488 kts 286°
2026-05-08 01:51 26.55947 51.39247 27811 ft 488 kts 286°
2026-05-08 01:52 26.57116 51.35712 27826 ft 488 kts 286°
2026-05-08 01:52 26.58283 51.32180 27818 ft 488 kts 286°
2026-05-08 01:52 26.59451 51.28641 27815 ft 488 kts 286°
2026-05-08 01:52 26.60631 51.25071 27812 ft 487 kts 286°
2026-05-08 01:53 26.61815 51.21491 27814 ft 487 kts 286°
2026-05-08 01:53 26.62983 51.17955 27816 ft 487 kts 286°
2026-05-08 01:53 26.64149 51.14424 27814 ft 487 kts 286°
2026-05-08 01:53 26.65327 51.10848 27813 ft 486 kts 286°
2026-05-08 01:54 26.66487 51.07327 27811 ft 486 kts 286°
2026-05-08 01:54 26.67650 51.03792 27817 ft 486 kts 286°
2026-05-08 01:54 26.68825 51.00211 27824 ft 486 kts 286°
2026-05-08 01:54 26.69966 50.96689 27828 ft 486 kts 285°
2026-05-08 01:55 26.71117 50.93101 27820 ft 485 kts 285°
2026-05-08 01:55 26.72247 50.89565 27818 ft 485 kts 285°
2026-05-08 01:55 26.73372 50.86043 27823 ft 485 kts 285°
2026-05-08 01:55 26.74518 50.82461 27823 ft 484 kts 285°
2026-05-08 01:56 26.75646 50.78935 27823 ft 484 kts 285°
2026-05-08 01:56 26.76777 50.75403 27827 ft 484 kts 285°
2026-05-08 01:56 26.77918 50.71831 27827 ft 484 kts 286°
2026-05-08 01:56 26.79183 50.68352 27808 ft 487 kts 291°
2026-05-08 01:57 26.80794 50.64966 27850 ft 490 kts 296°
2026-05-08 01:57 26.82605 50.61750 27825 ft 493 kts 300°
2026-05-08 01:57 26.84712 50.58669 27848 ft 497 kts 305°
2026-05-08 01:57 26.86919 50.55734 27835 ft 497 kts 305°
2026-05-08 01:58 26.89159 50.52731 27833 ft 497 kts 305°
2026-05-08 01:58 26.91341 50.49755 27854 ft 497 kts 304°
2026-05-08 01:58 26.93586 50.46825 27835 ft 499 kts 308°
2026-05-08 01:58 26.95987 50.43958 27853 ft 500 kts 309°
2026-05-08 01:59 26.98405 50.41164 27854 ft 501 kts 309°
2026-05-08 01:59 27.00808 50.38374 27851 ft 501 kts 309°
2026-05-08 01:59 27.03226 50.35515 27852 ft 501 kts 308°
2026-05-08 01:59 27.05593 50.32687 27852 ft 502 kts 308°
2026-05-08 02:00 27.07967 50.29824 27855 ft 502 kts 308°
2026-05-08 02:00 27.10340 50.26955 27853 ft 502 kts 308°
2026-05-08 02:00 27.12730 50.24068 27856 ft 502 kts 308°
2026-05-08 02:00 27.15122 50.21228 27870 ft 504 kts 310°
2026-05-08 02:01 27.17733 50.18543 27864 ft 508 kts 316°
2026-05-08 02:01 27.20560 50.16166 27868 ft 510 kts 319°
2026-05-08 02:01 27.23431 50.13856 27867 ft 510 kts 319°
2026-05-08 02:01 27.26332 50.11508 27861 ft 510 kts 319°
2026-05-08 02:02 27.29179 50.09172 27855 ft 510 kts 319°
2026-05-08 02:02 27.32015 50.06820 27856 ft 509 kts 318°
2026-05-08 02:02 27.34877 50.04438 27863 ft 509 kts 318°
2026-05-08 02:02 27.37695 50.02073 27863 ft 508 kts 317°
2026-05-08 02:03 27.40502 49.99638 27860 ft 508 kts 317°
2026-05-08 02:03 27.43265 49.97197 27862 ft 507 kts 316°
2026-05-08 02:03 27.46055 49.94720 27866 ft 507 kts 316°
2026-05-08 02:03 27.48802 49.92284 27866 ft 507 kts 316°
2026-05-08 02:04 27.51597 49.89814 27876 ft 508 kts 316°
2026-05-08 02:04 27.54364 49.87374 27874 ft 508 kts 316°
2026-05-08 02:04 27.57156 49.84915 27869 ft 507 kts 316°
2026-05-08 02:04 27.59923 49.82479 27864 ft 507 kts 316°
2026-05-08 02:05 27.62716 49.80018 27872 ft 507 kts 316°
2026-05-08 02:05 27.65482 49.77579 27868 ft 507 kts 316°
2026-05-08 02:05 27.68278 49.75110 27873 ft 507 kts 316°
2026-05-08 02:05 27.71032 49.72678 27874 ft 507 kts 316°
2026-05-08 02:06 27.73822 49.70211 27878 ft 507 kts 316°
2026-05-08 02:06 27.76582 49.67769 27875 ft 507 kts 316°
2026-05-08 02:06 27.79377 49.65292 27876 ft 507 kts 316°
2026-05-08 02:06 27.82124 49.62844 27878 ft 506 kts 316°
2026-05-08 02:07 27.84899 49.60361 27889 ft 506 kts 316°
2026-05-08 02:07 27.87643 49.57903 27880 ft 507 kts 316°
2026-05-08 02:07 27.90425 49.55409 27874 ft 507 kts 316°
2026-05-08 02:07 27.93187 49.52935 27874 ft 507 kts 316°
2026-05-08 02:08 27.95928 49.50478 27891 ft 507 kts 316°
2026-05-08 02:08 27.98703 49.47989 27882 ft 507 kts 316°
2026-05-08 02:08 28.01485 49.45494 27895 ft 507 kts 316°
2026-05-08 02:08 28.04228 49.43027 27876 ft 506 kts 315°
2026-05-08 02:09 28.06958 49.40548 27880 ft 506 kts 315°
2026-05-08 02:09 28.09714 49.38034 27893 ft 506 kts 315°
2026-05-08 02:09 28.12432 49.35549 27876 ft 506 kts 315°
2026-05-08 02:09 28.15195 49.33024 27880 ft 506 kts 315°
2026-05-08 02:10 28.17919 49.30536 27898 ft 506 kts 315°
2026-05-08 02:10 28.20679 49.28015 27893 ft 506 kts 315°
2026-05-08 02:10 28.23398 49.25531 27891 ft 506 kts 315°
2026-05-08 02:10 28.26154 49.23010 27886 ft 506 kts 315°
2026-05-08 02:11 28.28900 49.20491 27889 ft 505 kts 315°
2026-05-08 02:11 28.31611 49.17989 27887 ft 505 kts 315°
2026-05-08 02:11 28.34321 49.15482 27887 ft 505 kts 315°
2026-05-08 02:11 28.37065 49.12945 27898 ft 505 kts 315°
2026-05-08 02:12 28.39787 49.10450 27897 ft 506 kts 316°
2026-05-08 02:12 28.42666 49.08078 27894 ft 509 kts 320°
2026-05-08 02:12 28.45578 49.05855 27899 ft 510 kts 321°
2026-05-08 02:12 28.48572 49.03627 27898 ft 510 kts 321°
2026-05-08 02:13 28.51525 49.01431 27895 ft 510 kts 321°
2026-05-08 02:13 28.54510 48.99188 27906 ft 510 kts 320°
2026-05-08 02:13 28.57444 48.96959 27899 ft 510 kts 320°
2026-05-08 02:13 28.60403 48.94694 27899 ft 510 kts 320°
2026-05-08 02:14 28.63328 48.92446 27896 ft 511 kts 320°
2026-05-08 02:14 28.66271 48.90181 27900 ft 511 kts 320°
2026-05-08 02:14 28.69191 48.87933 27902 ft 511 kts 320°
2026-05-08 02:14 28.72158 48.85649 27909 ft 511 kts 320°
2026-05-08 02:15 28.75084 48.83396 27906 ft 511 kts 320°
2026-05-08 02:15 28.78054 48.81110 27904 ft 512 kts 320°
2026-05-08 02:15 28.80985 48.78852 27904 ft 512 kts 320°
2026-05-08 02:15 28.83955 48.76569 27904 ft 512 kts 320°
2026-05-08 02:16 28.86900 48.74311 27911 ft 512 kts 320°
2026-05-08 02:16 28.89874 48.72031 27915 ft 512 kts 319°
2026-05-08 02:16 28.92814 48.69775 27911 ft 512 kts 319°
2026-05-08 02:16 28.95761 48.67511 27908 ft 512 kts 319°
2026-05-08 02:17 28.98741 48.65219 27905 ft 512 kts 319°
2026-05-08 02:17 29.01671 48.62963 27907 ft 512 kts 319°
2026-05-08 02:17 29.04643 48.60673 27910 ft 512 kts 319°
2026-05-08 02:17 29.07584 48.58406 27911 ft 512 kts 319°
2026-05-08 02:18 29.10551 48.56116 27907 ft 513 kts 319°
2026-05-08 02:18 29.13477 48.53856 27907 ft 513 kts 319°
2026-05-08 02:18 29.16446 48.51562 27909 ft 513 kts 319°
2026-05-08 02:18 29.19387 48.49287 27909 ft 513 kts 319°
2026-05-08 02:19 29.22360 48.46987 27928 ft 513 kts 319°
2026-05-08 02:19 29.25294 48.44715 27918 ft 513 kts 319°
2026-05-08 02:19 29.28290 48.42393 27912 ft 513 kts 319°
2026-05-08 02:19 29.31217 48.40123 27903 ft 514 kts 319°
2026-05-08 02:20 29.34202 48.37807 27920 ft 514 kts 319°
2026-05-08 02:20 29.37143 48.35522 27918 ft 514 kts 319°
2026-05-08 02:20 29.40087 48.33234 27915 ft 514 kts 319°
2026-05-08 02:20 29.43075 48.30915 27920 ft 515 kts 320°
2026-05-08 02:21 29.46111 48.28763 27911 ft 518 kts 323°
2026-05-08 02:21 29.49264 48.26690 27914 ft 519 kts 324°
2026-05-08 02:21 29.52389 48.24666 27916 ft 519 kts 324°
2026-05-08 02:21 29.55515 48.22643 27936 ft 519 kts 324°
2026-05-08 02:22 29.58677 48.20587 27916 ft 520 kts 324°
2026-05-08 02:22 29.61839 48.18518 27918 ft 520 kts 324°
2026-05-08 02:22 29.64977 48.16454 27916 ft 520 kts 324°
2026-05-08 02:22 29.68101 48.14393 27914 ft 520 kts 324°
2026-05-08 02:23 29.71231 48.12325 27912 ft 520 kts 324°
2026-05-08 02:23 29.74354 48.10261 27931 ft 521 kts 324°
2026-05-08 02:23 29.77514 48.08170 27909 ft 521 kts 324°
2026-05-08 02:23 29.79622 48.06776 27928 ft 521 kts 324°
2026-05-08 02:24 29.82740 48.04713 27917 ft 521 kts 324°
2026-05-08 02:24 29.85872 48.02639 27920 ft 521 kts 324°
2026-05-08 02:24 29.89034 48.00543 27948 ft 521 kts 324°
2026-05-08 02:24 29.92166 47.98467 27928 ft 522 kts 324°
2026-05-08 02:25 29.95330 47.96367 27930 ft 522 kts 324°
2026-05-08 02:25 29.98441 47.94251 27930 ft 519 kts 321°
2026-05-08 02:25 30.01341 47.91855 27921 ft 513 kts 314°
2026-05-08 02:25 30.04046 47.89168 27936 ft 508 kts 310°
2026-05-08 02:26 30.06488 47.86278 27945 ft 502 kts 304°
2026-05-08 02:26 30.08764 47.83206 27929 ft 501 kts 303°
2026-05-08 02:26 30.11007 47.80158 27944 ft 501 kts 303°
2026-05-08 02:26 30.13290 47.77066 27943 ft 502 kts 303°
2026-05-08 02:27 30.15553 47.74016 27951 ft 502 kts 303°
2026-05-08 02:27 30.17850 47.70933 27946 ft 503 kts 303°
2026-05-08 02:27 30.20119 47.67895 27960 ft 503 kts 303°
2026-05-08 02:27 30.22394 47.64853 27956 ft 503 kts 303°
2026-05-08 02:28 30.24700 47.61767 27947 ft 503 kts 303°
2026-05-08 02:28 30.26999 47.58690 27949 ft 503 kts 303°
2026-05-08 02:28 30.29286 47.55625 27946 ft 503 kts 303°
2026-05-08 02:28 30.31562 47.52570 27943 ft 503 kts 303°
2026-05-08 02:29 30.33828 47.49527 27958 ft 503 kts 303°
2026-05-08 02:29 30.36118 47.46449 27949 ft 502 kts 303°
2026-05-08 02:29 30.38386 47.43397 27942 ft 501 kts 303°
2026-05-08 02:29 30.40662 47.40333 27937 ft 500 kts 303°
2026-05-08 02:30 30.42926 47.37282 27942 ft 499 kts 303°
2026-05-08 02:30 30.45181 47.34241 27945 ft 498 kts 303°
2026-05-08 02:30 30.47460 47.31165 27968 ft 498 kts 303°
2026-05-08 02:30 30.49693 47.28147 27968 ft 497 kts 303°
2026-05-08 02:31 30.51932 47.25121 27968 ft 496 kts 303°
2026-05-08 02:31 30.54198 47.22056 27964 ft 496 kts 303°
2026-05-08 02:31 30.56499 47.19088 27957 ft 500 kts 307°
2026-05-08 02:31 30.59082 47.16316 27958 ft 507 kts 313°
2026-05-08 02:32 30.61828 47.13776 27973 ft 508 kts 314°
2026-05-08 02:32 30.64621 47.11222 27970 ft 508 kts 314°
2026-05-08 02:32 30.67379 47.08696 27968 ft 509 kts 314°
2026-05-08 02:32 30.70148 47.06144 27969 ft 509 kts 314°
2026-05-08 02:33 30.72934 47.03559 27970 ft 509 kts 314°
2026-05-08 02:33 30.75686 47.00991 27992 ft 509 kts 314°
2026-05-08 02:33 30.78457 46.98396 27979 ft 509 kts 314°
2026-05-08 02:33 30.81204 46.95820 27984 ft 509 kts 314°
2026-05-08 02:34 30.83946 46.93245 27962 ft 509 kts 314°
2026-05-08 02:34 30.86715 46.90645 27984 ft 508 kts 314°
2026-05-08 02:34 30.89451 46.88074 27964 ft 508 kts 314°
2026-05-08 02:34 30.92226 46.85464 27985 ft 507 kts 314°
2026-05-08 02:35 30.94949 46.82903 27977 ft 507 kts 314°
2026-05-08 02:35 30.97703 46.80310 27972 ft 506 kts 314°
2026-05-08 02:35 31.00430 46.77741 27972 ft 505 kts 314°
2026-05-08 02:35 31.03144 46.75182 27972 ft 504 kts 314°
2026-05-08 02:36 31.05876 46.72604 27993 ft 504 kts 314°
2026-05-08 02:36 31.08577 46.70054 27988 ft 503 kts 313°
2026-05-08 02:36 31.11305 46.67474 27981 ft 503 kts 313°
2026-05-08 02:36 31.13884 46.65035 27973 ft 502 kts 313°
2026-05-08 02:37 31.16195 46.62847 27974 ft 502 kts 313°
2026-05-08 02:37 31.18915 46.60270 27977 ft 502 kts 313°
2026-05-08 02:37 31.21603 46.57722 27993 ft 501 kts 313°
2026-05-08 02:37 31.24303 46.55161 27987 ft 501 kts 313°
2026-05-08 02:38 31.27035 46.52567 27984 ft 501 kts 313°
2026-05-08 02:38 31.29731 46.50006 27986 ft 501 kts 313°
2026-05-08 02:38 31.32342 46.47523 27987 ft 501 kts 313°
2026-05-08 02:38 31.34982 46.45012 28010 ft 502 kts 313°
2026-05-08 02:39 31.37674 46.42448 27991 ft 502 kts 313°
2026-05-08 02:39 31.40368 46.39881 27996 ft 502 kts 313°
2026-05-08 02:39 31.43095 46.37280 27992 ft 502 kts 313°
2026-05-08 02:39 31.45789 46.34709 27992 ft 502 kts 313°
2026-05-08 02:40 31.51235 46.29506 28015 ft 503 kts 313°
2026-05-08 02:40 31.56619 46.24353 28010 ft 503 kts 313°
2026-05-08 02:41 31.62071 46.19127 28013 ft 503 kts 313°
2026-05-08 02:41 31.67473 46.13942 28028 ft 503 kts 313°
2026-05-08 02:42 31.72882 46.08742 28026 ft 503 kts 313°
2026-05-08 02:42 31.78272 46.03510 28042 ft 502 kts 312°
2026-05-08 02:43 31.83573 45.98237 28031 ft 501 kts 311°
2026-05-08 02:43 31.88890 45.92926 28035 ft 501 kts 312°
2026-05-08 02:44 31.94213 45.87617 28043 ft 501 kts 312°
2026-05-08 02:44 31.99547 45.82299 28031 ft 501 kts 312°
2026-05-08 02:45 32.04843 45.77012 28034 ft 501 kts 312°
2026-05-08 02:45 32.10156 45.71699 28040 ft 501 kts 312°
2026-05-08 02:46 32.15458 45.66387 28041 ft 500 kts 312°
2026-05-08 02:46 32.20764 45.61063 28026 ft 500 kts 312°
2026-05-08 02:47 32.26071 45.55729 28049 ft 500 kts 311°
2026-05-08 02:47 32.31377 45.50388 28051 ft 500 kts 311°
2026-05-08 02:48 32.36675 45.45047 28038 ft 500 kts 311°
2026-05-08 02:48 32.41965 45.39705 28037 ft 500 kts 311°
2026-05-08 02:49 32.47257 45.34351 28051 ft 500 kts 311°
2026-05-08 02:49 32.52545 45.28994 28047 ft 500 kts 311°
2026-05-08 02:50 32.58036 45.23931 28042 ft 507 kts 319°
2026-05-08 02:50 32.63936 45.19335 28042 ft 506 kts 319°
2026-05-08 02:51 32.69814 45.14749 28041 ft 505 kts 319°
2026-05-08 02:51 32.75648 45.10136 28059 ft 502 kts 319°
2026-05-08 02:52 32.81445 45.05524 28045 ft 500 kts 319°
2026-05-08 02:52 32.87216 45.00923 28067 ft 498 kts 319°
2026-05-08 02:53 32.92962 44.96338 28048 ft 496 kts 320°
2026-05-08 02:53 32.98681 44.91769 28051 ft 494 kts 320°
2026-05-08 02:54 33.04382 44.87206 28069 ft 493 kts 320°
2026-05-08 02:54 33.10045 44.82665 28070 ft 494 kts 320°
2026-05-08 02:55 33.18694 44.75857 28063 ft 499 kts 326°
2026-05-08 02:55 33.21906 44.74212 28062 ft 510 kts 336°
2026-05-08 02:56 33.25351 44.73191 28065 ft 518 kts 345°
2026-05-08 02:56 33.32623 44.72763 28066 ft 526 kts 354°
2026-05-08 02:57 33.39975 44.72678 28080 ft 527 kts 354°
2026-05-08 02:57 33.47279 44.72520 28075 ft 527 kts 353°
2026-05-08 02:58 33.54638 44.72300 28094 ft 527 kts 353°
2026-05-08 02:58 33.61984 44.72065 28088 ft 527 kts 353°
2026-05-08 02:59 33.69299 44.71836 28084 ft 527 kts 353°
2026-05-08 02:59 33.76649 44.71609 28101 ft 526 kts 353°
2026-05-08 03:00 33.83935 44.71384 28091 ft 526 kts 353°
2026-05-08 03:00 33.91257 44.71158 28088 ft 525 kts 353°
2026-05-08 03:01 33.98549 44.70932 28093 ft 525 kts 353°
2026-05-08 03:01 34.05856 44.70705 28091 ft 524 kts 353°
2026-05-08 03:02 34.13157 44.70478 28113 ft 524 kts 353°
2026-05-08 03:02 34.20465 44.70250 28097 ft 524 kts 353°
2026-05-08 03:03 34.27741 44.70023 28095 ft 524 kts 353°
2026-05-08 03:03 34.34997 44.69796 28110 ft 524 kts 353°
2026-05-08 03:04 34.42283 44.69568 28103 ft 524 kts 353°
2026-05-08 03:04 34.49556 44.68888 28090 ft 517 kts 344°
2026-05-08 03:05 34.56455 44.66709 28107 ft 507 kts 333°
2026-05-08 03:05 34.62969 44.63532 28102 ft 505 kts 331°
2026-05-08 03:06 34.69448 44.60339 28116 ft 505 kts 331°
2026-05-08 03:06 34.75988 44.57160 28117 ft 505 kts 331°
2026-05-08 03:07 34.82516 44.54004 28116 ft 504 kts 332°
2026-05-08 03:07 34.87929 44.51385 28093 ft 504 kts 332°
2026-05-08 03:08 34.94448 44.48222 28096 ft 503 kts 331°
2026-05-08 03:08 35.00952 44.45059 28105 ft 503 kts 331°
2026-05-08 03:09 35.07459 44.41890 28129 ft 503 kts 332°
2026-05-08 03:09 35.13923 44.38736 28106 ft 502 kts 332°
2026-05-08 03:10 35.20432 44.35555 28123 ft 502 kts 332°
2026-05-08 03:10 35.26908 44.32384 28103 ft 500 kts 332°
2026-05-08 03:11 35.33330 44.29166 28103 ft 498 kts 330°
2026-05-08 03:11 35.39710 44.25854 28106 ft 497 kts 330°
2026-05-08 03:12 35.46074 44.22546 28122 ft 497 kts 330°
2026-05-08 03:12 35.52471 44.19234 28112 ft 498 kts 330°
2026-05-08 03:13 35.58842 44.15936 28105 ft 498 kts 330°
2026-05-08 03:13 35.65224 44.12625 28103 ft 497 kts 330°
2026-05-08 03:14 35.71593 44.09315 28103 ft 498 kts 330°
2026-05-08 03:14 35.77986 44.05986 28094 ft 498 kts 330°
2026-05-08 03:15 35.84372 44.02658 28094 ft 498 kts 330°
2026-05-08 03:15 35.90749 43.99342 28114 ft 498 kts 330°
2026-05-08 03:16 35.97127 43.96020 28105 ft 499 kts 330°
2026-05-08 03:16 36.03530 43.92677 28106 ft 499 kts 330°
2026-05-08 03:17 36.09910 43.89340 28111 ft 499 kts 330°
2026-05-08 03:17 36.16275 43.86004 28107 ft 498 kts 330°
2026-05-08 03:18 36.22679 43.82642 28112 ft 497 kts 330°
2026-05-08 03:18 36.29025 43.79308 28102 ft 496 kts 330°
2026-05-08 03:19 36.35370 43.76019 28138 ft 495 kts 330°
2026-05-08 03:19 36.41746 43.72727 28116 ft 494 kts 330°
2026-05-08 03:20 36.48071 43.69447 28108 ft 493 kts 330°
2026-05-08 03:20 36.54399 43.66153 28125 ft 492 kts 330°
2026-05-08 03:21 36.60697 43.62870 28121 ft 491 kts 330°
2026-05-08 03:21 36.66978 43.59589 28135 ft 491 kts 330°
2026-05-08 03:22 36.73274 43.56296 28129 ft 492 kts 330°
2026-05-08 03:22 36.79552 43.52911 28130 ft 491 kts 329°
2026-05-08 03:23 36.85788 43.49401 28155 ft 491 kts 329°
2026-05-08 03:23 36.91984 43.45910 28135 ft 490 kts 329°
2026-05-08 03:24 36.98197 43.42426 28179 ft 490 kts 330°
2026-05-08 03:24 37.04442 43.38929 28145 ft 488 kts 330°
2026-05-08 03:25 37.10607 43.35467 28157 ft 486 kts 330°
2026-05-08 03:25 37.16726 43.32024 28185 ft 483 kts 330°
2026-05-08 03:26 37.22879 43.28553 28175 ft 482 kts 330°
2026-05-08 03:26 37.28981 43.25107 28169 ft 481 kts 330°
2026-05-08 03:27 37.34472 43.20659 28172 ft 464 kts 311°
2026-05-08 03:27 37.38298 43.14327 28135 ft 453 kts 294°
2026-05-08 03:28 37.41196 43.07239 28178 ft 458 kts 294°
2026-05-08 03:28 37.44156 43.00192 28167 ft 455 kts 295°
2026-05-08 03:29 37.47124 42.93188 28156 ft 452 kts 295°
2026-05-08 03:29 37.50101 42.86156 28182 ft 452 kts 295°
2026-05-08 03:30 37.54524 42.75673 28161 ft 455 kts 295°
2026-05-08 03:31 37.60483 42.61509 28157 ft 457 kts 296°
2026-05-08 03:32 37.64952 42.50922 28156 ft 456 kts 296°
2026-05-08 03:32 37.67923 42.43864 28157 ft 457 kts 296°
2026-05-08 03:33 37.70909 42.36748 28136 ft 457 kts 296°
2026-05-08 03:33 37.73875 42.29662 28140 ft 458 kts 296°
2026-05-08 03:34 37.76856 42.22528 28134 ft 458 kts 296°
2026-05-08 03:34 37.79818 42.15419 28139 ft 459 kts 296°
2026-05-08 03:35 37.82788 42.08278 28134 ft 458 kts 296°
2026-05-08 03:35 37.85755 42.01126 28135 ft 458 kts 296°
2026-05-08 03:36 37.88715 41.93976 28156 ft 458 kts 296°
2026-05-08 03:36 37.92018 41.87055 28153 ft 459 kts 304°
2026-05-08 03:37 37.96129 41.80890 28138 ft 461 kts 309°
2026-05-08 03:37 38.00407 41.74817 28144 ft 461 kts 309°
2026-05-08 03:38 38.04657 41.68726 28144 ft 460 kts 309°
2026-05-08 03:38 38.08875 41.62645 28140 ft 460 kts 309°
2026-05-08 03:39 38.13102 41.56535 28154 ft 460 kts 309°
2026-05-08 03:39 38.17311 41.50440 28138 ft 460 kts 309°
2026-05-08 03:40 38.21516 41.44339 28137 ft 459 kts 309°
2026-05-08 03:40 38.25719 41.38231 28148 ft 459 kts 309°
2026-05-08 03:41 38.29929 41.32102 28138 ft 459 kts 309°
2026-05-08 03:41 38.34121 41.25987 28138 ft 459 kts 309°
2026-05-08 03:42 38.38316 41.19854 28142 ft 458 kts 309°
2026-05-08 03:42 38.42501 41.13724 28148 ft 458 kts 309°
2026-05-08 03:43 38.46682 41.07589 28142 ft 458 kts 309°
2026-05-08 03:43 38.50785 41.01378 28141 ft 457 kts 308°
2026-05-08 03:44 38.54827 40.95171 28145 ft 457 kts 308°
2026-05-08 03:44 38.58924 40.88897 28160 ft 457 kts 308°
2026-05-08 03:45 38.62998 40.82661 28164 ft 457 kts 309°
2026-05-08 03:45 38.67092 40.76449 28149 ft 457 kts 309°
2026-05-08 03:46 38.71207 40.70244 28157 ft 457 kts 309°
2026-05-08 03:47 38.78921 40.58555 28167 ft 458 kts 309°
2026-05-08 03:47 38.83030 40.52304 28166 ft 458 kts 309°
2026-05-08 03:48 38.87125 40.46061 28168 ft 457 kts 309°
2026-05-08 03:48 38.91232 40.39790 28186 ft 458 kts 309°
2026-05-08 03:49 38.95312 40.33545 28172 ft 459 kts 309°
2026-05-08 03:49 38.99426 40.27237 28178 ft 459 kts 309°
2026-05-08 03:50 39.03528 40.20934 28174 ft 459 kts 309°
2026-05-08 03:50 39.07611 40.14647 28187 ft 460 kts 309°
2026-05-08 03:51 39.11705 40.08333 28187 ft 460 kts 309°
2026-05-08 03:51 39.15805 40.01996 28188 ft 460 kts 309°
2026-05-08 03:52 39.19908 39.95643 28190 ft 460 kts 309°
2026-05-08 03:52 39.24000 39.89297 28189 ft 460 kts 309°
2026-05-08 03:53 39.28086 39.82953 28192 ft 460 kts 309°
2026-05-08 03:53 39.32182 39.76581 28190 ft 461 kts 309°
2026-05-08 03:54 39.36273 39.70199 28185 ft 461 kts 310°
2026-05-08 03:54 39.40354 39.63820 28197 ft 461 kts 309°
2026-05-08 03:55 39.44438 39.57422 28206 ft 461 kts 309°
2026-05-08 03:55 39.48531 39.50999 28216 ft 462 kts 310°
2026-05-08 03:56 39.52603 39.44581 28224 ft 463 kts 309°
2026-05-08 03:56 39.56635 39.38092 28241 ft 463 kts 309°
2026-05-08 03:57 39.60673 39.31558 28202 ft 464 kts 309°
2026-05-08 03:57 39.64717 39.25017 28200 ft 464 kts 309°
2026-05-08 03:58 39.68746 39.18493 28212 ft 464 kts 309°
2026-05-08 03:58 39.72790 39.11936 28222 ft 464 kts 309°
2026-05-08 03:59 39.76853 39.05434 28217 ft 465 kts 310°
2026-05-08 03:59 39.80950 38.98924 28214 ft 465 kts 310°
2026-05-08 04:00 39.85033 38.92411 28217 ft 465 kts 310°
2026-05-08 04:00 39.89120 38.85867 28233 ft 466 kts 310°
2026-05-08 04:01 39.93203 38.79311 28232 ft 467 kts 310°
2026-05-08 04:01 39.97304 38.72711 28219 ft 467 kts 310°
2026-05-08 04:02 40.01379 38.66139 28235 ft 468 kts 310°
2026-05-08 04:02 40.05466 38.59536 28225 ft 468 kts 310°
2026-05-08 04:03 40.09551 38.52921 28223 ft 468 kts 310°
2026-05-08 04:03 40.15675 38.42978 28231 ft 469 kts 310°
2026-05-08 04:04 40.19784 38.36289 28247 ft 470 kts 310°
2026-05-08 04:04 40.23873 38.29617 28214 ft 471 kts 310°
2026-05-08 04:05 40.27960 38.22935 28225 ft 471 kts 310°
2026-05-08 04:05 40.31890 38.16056 28233 ft 474 kts 303°
2026-05-08 04:06 40.34898 38.08350 28230 ft 477 kts 293°
2026-05-08 04:06 40.37290 38.00204 28230 ft 478 kts 293°
2026-05-08 04:07 40.39695 37.92087 28201 ft 477 kts 293°
2026-05-08 04:07 40.42098 37.84047 28214 ft 475 kts 293°
2026-05-08 04:08 40.44509 37.75974 28222 ft 474 kts 293°
2026-05-08 04:08 40.46912 37.67905 28205 ft 474 kts 293°
2026-05-08 04:09 40.49306 37.59836 28211 ft 474 kts 293°
2026-05-08 04:09 40.51702 37.51746 28198 ft 474 kts 293°
2026-05-08 04:10 40.54086 37.43664 28220 ft 475 kts 293°
2026-05-08 04:10 40.56477 37.35540 28207 ft 476 kts 293°
2026-05-08 04:11 40.58858 37.27420 28206 ft 478 kts 293°
2026-05-08 04:11 40.61244 37.19257 28191 ft 479 kts 293°
2026-05-08 04:12 40.63642 37.11026 28197 ft 479 kts 293°
2026-05-08 04:12 40.66013 37.02867 28194 ft 480 kts 293°
2026-05-08 04:13 40.68390 36.94657 28185 ft 479 kts 293°
2026-05-08 04:13 40.70759 36.86449 28178 ft 479 kts 293°
2026-05-08 04:14 40.73122 36.78239 28179 ft 478 kts 293°
2026-05-08 04:14 40.75479 36.70024 28183 ft 478 kts 293°
2026-05-08 04:15 40.77837 36.61792 28179 ft 478 kts 293°
2026-05-08 04:15 40.80189 36.53597 28183 ft 479 kts 293°
2026-05-08 04:16 40.82546 36.45352 28181 ft 479 kts 293°
2026-05-08 04:16 40.84885 36.37139 28169 ft 479 kts 293°
2026-05-08 04:17 40.87291 36.28661 28173 ft 479 kts 293°
2026-05-08 04:17 40.91160 36.14973 28159 ft 479 kts 293°
2026-05-08 04:18 40.95761 35.98470 28153 ft 478 kts 292°
2026-05-08 04:18 41.00284 35.81941 28145 ft 477 kts 292°
2026-05-08 04:19 41.00379 35.81599 28145 ft 477 kts 292°
2026-05-08 04:19 41.03721 35.69575 28147 ft 477 kts 292°
2026-05-08 04:20 41.08291 35.53015 28148 ft 479 kts 292°
2026-05-08 04:20 41.10556 35.44750 29423 ft 467 kts 292°
2026-05-08 04:20 41.12729 35.36794 30400 ft 463 kts 292°
2026-05-08 04:21 41.14842 35.29046 30942 ft 464 kts 292°
2026-05-08 04:21 41.17034 35.20979 31677 ft 460 kts 293°
2026-05-08 04:21 41.19205 35.12963 32206 ft 460 kts 293°
2026-05-08 04:21 41.21361 35.04981 32172 ft 466 kts 292°
2026-05-08 04:22 41.25725 34.88725 32176 ft 461 kts 293°
2026-05-08 04:22 41.29926 34.72984 32191 ft 449 kts 293°
2026-05-08 04:23 41.34100 34.57260 32160 ft 449 kts 293°
2026-05-08 04:23 41.38278 34.41415 32200 ft 456 kts 292°
2026-05-08 04:24 41.42438 34.25439 32186 ft 460 kts 292°
2026-05-08 04:24 41.46534 34.09478 32187 ft 451 kts 292°
2026-05-08 04:25 41.50588 33.93728 32186 ft 447 kts 292°
2026-05-08 04:25 41.54638 33.77881 32179 ft 457 kts 292°
2026-05-08 04:26 41.58744 33.61693 32238 ft 461 kts 292°
2026-05-08 04:26 41.62787 33.45489 32196 ft 459 kts 292°
2026-05-08 04:27 41.66843 33.29416 32187 ft 450 kts 291°
2026-05-08 04:27 41.70774 33.13673 32164 ft 450 kts 291°
2026-05-08 04:28 41.74734 32.97670 32155 ft 457 kts 291°
2026-05-08 04:28 41.78702 32.81281 32134 ft 462 kts 291°
2026-05-08 04:29 41.82663 32.65044 32140 ft 455 kts 291°
2026-05-08 04:29 41.86593 32.49009 32106 ft 449 kts 290°
2026-05-08 04:30 41.90384 32.32974 32143 ft 457 kts 290°
2026-05-08 04:30 41.94289 32.16630 32064 ft 464 kts 290°
2026-05-08 04:31 41.98189 32.00131 32116 ft 458 kts 290°
2026-05-08 04:31 42.01993 31.83940 32136 ft 452 kts 290°
2026-05-08 04:32 42.05757 31.67789 32146 ft 458 kts 289°
2026-05-08 04:32 42.09587 31.51235 32037 ft 466 kts 289°
2026-05-08 04:33 42.11493 31.42953 32147 ft 467 kts 289°
2026-05-08 04:33 42.13436 31.34491 32172 ft 467 kts 289°
2026-05-08 04:33 42.15333 31.26221 32034 ft 466 kts 289°
2026-05-08 04:33 42.17240 31.17873 32158 ft 461 kts 288°
2026-05-08 04:34 42.20983 31.01397 32142 ft 459 kts 288°
2026-05-08 04:34 42.24698 30.84923 32117 ft 460 kts 288°
2026-05-08 04:35 42.28421 30.68286 32127 ft 461 kts 288°
2026-05-08 04:35 42.32082 30.51794 32146 ft 463 kts 287°
2026-05-08 04:36 42.35786 30.34987 32095 ft 466 kts 287°
2026-05-08 04:36 42.39471 30.18127 32157 ft 467 kts 286°
2026-05-08 04:37 42.43132 30.01253 32111 ft 469 kts 286°
2026-05-08 04:37 42.47710 29.84768 32131 ft 470 kts 299°
2026-05-08 04:38 42.55448 29.70444 32130 ft 472 kts 307°
2026-05-08 04:38 42.63437 29.56274 32090 ft 473 kts 306°
2026-05-08 04:39 42.71359 29.42041 32096 ft 473 kts 306°
2026-05-08 04:39 42.79263 29.27778 32109 ft 472 kts 306°
2026-05-08 04:40 42.87180 29.13424 32107 ft 471 kts 306°
2026-05-08 04:40 42.95003 28.99172 32103 ft 471 kts 306°
2026-05-08 04:41 43.02818 28.84865 32104 ft 469 kts 306°
2026-05-08 04:41 43.10555 28.70569 32107 ft 468 kts 305°
2026-05-08 04:42 43.18242 28.56189 32096 ft 466 kts 305°
2026-05-08 04:42 43.25884 28.41841 32109 ft 463 kts 305°
2026-05-08 04:43 43.33427 28.27613 32096 ft 460 kts 305°
2026-05-08 04:43 43.40878 28.13491 32075 ft 459 kts 304°
2026-05-08 04:44 43.48333 27.99291 32086 ft 457 kts 304°
2026-05-08 04:44 43.55764 27.85070 32116 ft 456 kts 305°
2026-05-08 04:45 43.63167 27.70832 32039 ft 457 kts 304°
2026-05-08 04:45 43.70546 27.56573 32108 ft 455 kts 304°
2026-05-08 04:46 43.77846 27.42399 32078 ft 455 kts 304°
2026-05-08 04:46 43.81529 27.35221 32202 ft 452 kts 304°
2026-05-08 04:46 43.85157 27.28132 32066 ft 455 kts 304°
2026-05-08 04:47 43.92490 27.13752 32059 ft 455 kts 304°
2026-05-08 04:47 43.99771 26.99405 32052 ft 455 kts 304°
2026-05-08 04:48 44.07044 26.85001 32052 ft 455 kts 303°
2026-05-08 04:48 44.14499 26.70823 32037 ft 455 kts 305°
2026-05-08 04:49 44.22076 26.56688 32047 ft 455 kts 305°
2026-05-08 04:49 44.29623 26.42437 32031 ft 457 kts 304°
2026-05-08 04:50 44.37171 26.28110 32058 ft 457 kts 304°
2026-05-08 04:50 44.44651 26.13846 32050 ft 457 kts 304°
2026-05-08 04:51 44.52143 25.99487 32062 ft 456 kts 304°
2026-05-08 04:51 44.59652 25.85021 32065 ft 457 kts 304°
2026-05-08 04:52 44.67114 25.70575 32071 ft 457 kts 303°
2026-05-08 04:52 44.74532 25.56141 32057 ft 457 kts 303°
2026-05-08 04:53 44.81965 25.41606 32063 ft 456 kts 303°
2026-05-08 04:53 44.89368 25.27058 32055 ft 456 kts 303°
2026-05-08 04:54 44.96710 25.12554 32060 ft 456 kts 302°
2026-05-08 04:54 45.04093 24.97896 32081 ft 457 kts 302°
2026-05-08 04:55 45.11471 24.83171 32066 ft 458 kts 302°
2026-05-08 04:55 45.18827 24.68414 32074 ft 458 kts 302°
2026-05-08 04:56 45.26159 24.53631 32065 ft 459 kts 302°
2026-05-08 04:56 45.33451 24.38849 32059 ft 459 kts 302°
2026-05-08 04:57 45.40810 24.23856 32069 ft 460 kts 302°
2026-05-08 04:57 45.48114 24.08898 32080 ft 460 kts 301°
2026-05-08 04:58 45.55354 23.93992 32078 ft 458 kts 301°
2026-05-08 04:58 45.62586 23.79021 32069 ft 456 kts 301°
2026-05-08 04:59 45.69734 23.64147 32086 ft 453 kts 301°
2026-05-08 04:59 45.76847 23.49272 32078 ft 453 kts 301°
2026-05-08 05:00 45.82754 23.36845 32112 ft 453 kts 300°
2026-05-08 05:00 45.89844 23.21872 32077 ft 455 kts 300°
2026-05-08 05:01 45.97017 23.06909 32073 ft 457 kts 304°
2026-05-08 05:01 46.05144 22.92758 32044 ft 459 kts 305°
2026-05-08 05:02 46.13210 22.78595 32133 ft 456 kts 304°
2026-05-08 05:02 46.21260 22.64340 32178 ft 457 kts 304°
2026-05-08 05:03 46.29315 22.50006 32112 ft 461 kts 304°
2026-05-08 05:03 46.37378 22.35589 32109 ft 460 kts 304°
2026-05-08 05:04 46.45391 22.21182 32122 ft 461 kts 304°
2026-05-08 05:04 46.53490 22.06546 32052 ft 463 kts 304°
2026-05-08 05:05 46.61537 21.91927 32079 ft 463 kts 304°
2026-05-08 05:05 46.69517 21.77352 32043 ft 463 kts 304°
2026-05-08 05:06 46.77548 21.62608 32096 ft 461 kts 303°
2026-05-08 05:06 46.85505 21.47919 32034 ft 460 kts 303°
2026-05-08 05:07 46.93425 21.33222 32089 ft 460 kts 303°
2026-05-08 05:07 47.01322 21.18489 32048 ft 460 kts 303°
2026-05-08 05:08 47.09210 21.03694 32051 ft 459 kts 303°
2026-05-08 05:08 47.17054 20.88900 32056 ft 460 kts 303°
2026-05-08 05:09 47.24904 20.74016 32060 ft 460 kts 303°
2026-05-08 05:09 47.32702 20.59151 32049 ft 460 kts 303°
2026-05-08 05:10 47.44409 20.36681 32073 ft 461 kts 302°
2026-05-08 05:11 47.52226 20.21576 32033 ft 462 kts 302°
2026-05-08 05:11 47.60030 20.06409 32090 ft 462 kts 302°
2026-05-08 05:12 47.67813 19.91201 32046 ft 463 kts 302°
2026-05-08 05:12 47.75580 19.75939 32043 ft 463 kts 302°
2026-05-08 05:13 47.83329 19.60628 32060 ft 462 kts 302°
2026-05-08 05:13 47.91018 19.45348 32052 ft 461 kts 302°
2026-05-08 05:14 47.98657 19.30081 32040 ft 461 kts 302°
2026-05-08 05:14 48.06298 19.14726 32043 ft 459 kts 302°
2026-05-08 05:15 48.13096 18.98704 32075 ft 454 kts 297°
2026-05-08 05:15 48.19679 18.82555 32022 ft 455 kts 297°
2026-05-08 05:16 48.26258 18.66394 32043 ft 455 kts 297°
2026-05-08 05:16 48.32829 18.50156 32037 ft 455 kts 297°
2026-05-08 05:17 48.39386 18.33851 32075 ft 455 kts 297°
2026-05-08 05:17 48.45896 18.17569 32145 ft 452 kts 297°
2026-05-08 05:17 48.49120 18.09464 31984 ft 456 kts 297°
2026-05-08 05:18 48.52388 18.01225 32026 ft 455 kts 297°
2026-05-08 05:18 48.58842 17.84883 32031 ft 456 kts 298°
2026-05-08 05:19 48.65322 17.68369 32087 ft 456 kts 297°
2026-05-08 05:19 48.71782 17.51806 32043 ft 457 kts 298°
2026-05-08 05:20 48.78240 17.35141 32065 ft 457 kts 297°
2026-05-08 05:20 48.84660 17.18475 32114 ft 457 kts 297°
2026-05-08 05:21 48.90632 17.01915 32123 ft 456 kts 295°
2026-05-08 05:21 48.96610 16.84824 32002 ft 459 kts 296°
2026-05-08 05:22 49.02581 16.67788 32121 ft 457 kts 296°
2026-05-08 05:22 49.08495 16.50567 32215 ft 455 kts 295°
2026-05-08 05:22 49.11513 16.41910 31978 ft 461 kts 296°
2026-05-08 05:23 49.14508 16.33358 32024 ft 459 kts 296°
2026-05-08 05:23 49.20482 16.16023 32079 ft 458 kts 296°
2026-05-08 05:24 49.26203 15.99251 32095 ft 445 kts 296°
2026-05-08 05:24 49.31928 15.82346 32098 ft 452 kts 295°
2026-05-08 05:25 49.37763 15.65005 32100 ft 466 kts 296°
2026-05-08 05:25 49.43682 15.47308 32072 ft 463 kts 296°
2026-05-08 05:26 49.49464 15.29895 32076 ft 453 kts 296°
2026-05-08 05:26 49.55164 15.12603 32133 ft 448 kts 295°
2026-05-08 05:27 49.60845 14.95253 32052 ft 459 kts 296°
2026-05-08 05:27 49.63707 14.86467 32207 ft 459 kts 295°
2026-05-08 05:27 49.66556 14.77690 32062 ft 463 kts 295°
2026-05-08 05:28 49.72288 14.59941 32208 ft 455 kts 295°
2026-05-08 05:28 49.75108 14.51162 32077 ft 456 kts 295°
2026-05-08 05:28 49.77900 14.42439 32043 ft 457 kts 295°
2026-05-08 05:29 49.83495 14.24865 32100 ft 454 kts 295°
2026-05-08 05:29 49.89049 14.07299 32089 ft 454 kts 295°
2026-05-08 05:30 49.95006 13.90008 32068 ft 456 kts 298°
2026-05-08 05:30 49.98159 13.81277 31917 ft 459 kts 298°
2026-05-08 05:30 50.01232 13.72676 32108 ft 455 kts 298°
2026-05-08 05:31 50.07349 13.55384 32086 ft 457 kts 298°
2026-05-08 05:31 50.13469 13.37964 32090 ft 459 kts 298°
2026-05-08 05:32 50.19558 13.20517 32095 ft 460 kts 297°
2026-05-08 05:32 50.25650 13.02942 32119 ft 461 kts 297°
2026-05-08 05:33 50.31734 12.85266 32099 ft 462 kts 297°
2026-05-08 05:33 50.37802 12.67515 32104 ft 462 kts 297°
2026-05-08 05:34 50.44346 12.50147 32107 ft 463 kts 301°
2026-05-08 05:34 50.51113 12.32916 32102 ft 463 kts 300°
2026-05-08 05:35 50.57785 12.15680 32112 ft 463 kts 300°
2026-05-08 05:35 50.64496 11.98225 32117 ft 463 kts 300°
2026-05-08 05:36 50.71092 11.80954 32118 ft 463 kts 300°
2026-05-08 05:36 50.77736 11.63441 32125 ft 464 kts 300°
2026-05-08 05:37 50.84314 11.45986 32123 ft 464 kts 299°
2026-05-08 05:37 50.90927 11.28316 32134 ft 464 kts 299°
2026-05-08 05:38 50.97479 11.10685 32129 ft 464 kts 299°
2026-05-08 05:38 51.03994 10.93036 32135 ft 463 kts 299°
2026-05-08 05:39 51.10467 10.75379 32134 ft 464 kts 299°
2026-05-08 05:39 51.16946 10.57581 32136 ft 464 kts 298°
2026-05-08 05:40 51.23399 10.39734 32135 ft 464 kts 298°
2026-05-08 05:40 51.28564 10.20930 32145 ft 462 kts 290°
2026-05-08 05:41 51.33141 10.01752 32135 ft 463 kts 290°
2026-05-08 05:41 51.37723 9.82592 32142 ft 463 kts 290°
2026-05-08 05:42 51.42301 9.63275 32136 ft 463 kts 290°
2026-05-08 05:42 51.46834 9.43972 32129 ft 463 kts 289°
2026-05-08 05:43 51.51338 9.24619 32136 ft 463 kts 289°
2026-05-08 05:43 51.55055 9.08513 32129 ft 462 kts 289°
2026-05-08 05:44 51.59488 8.89143 32131 ft 462 kts 289°
2026-05-08 05:44 51.63900 8.69687 32130 ft 462 kts 289°
2026-05-08 05:45 51.68268 8.50248 32129 ft 462 kts 289°
2026-05-08 05:45 51.72612 8.30734 32123 ft 462 kts 288°
2026-05-08 05:46 51.76934 8.11135 32133 ft 462 kts 288°
2026-05-08 05:46 51.81192 7.91643 32122 ft 462 kts 288°
2026-05-08 05:47 51.85470 7.71923 32118 ft 463 kts 289°
2026-05-08 05:47 51.90972 7.53039 32125 ft 464 kts 294°
2026-05-08 05:48 51.96551 7.34243 32141 ft 464 kts 294°
2026-05-08 05:48 52.02095 7.15332 32131 ft 465 kts 294°
2026-05-08 05:49 52.07606 6.96397 32132 ft 465 kts 293°
2026-05-08 05:49 52.12980 6.77286 32140 ft 465 kts 293°
2026-05-08 05:50 52.17497 6.57563 32128 ft 464 kts 288°
2026-05-08 05:50 52.21817 6.37772 32130 ft 464 kts 288°
2026-05-08 05:51 52.26135 6.17945 32153 ft 464 kts 288°
2026-05-08 05:51 52.30426 5.98093 32136 ft 465 kts 288°
2026-05-08 05:52 52.34724 5.78009 32140 ft 465 kts 287°
2026-05-08 05:52 52.38961 5.58024 32133 ft 466 kts 287°
2026-05-08 05:53 52.43159 5.38012 32137 ft 466 kts 287°
2026-05-08 05:53 52.47357 5.17807 32124 ft 466 kts 287°
2026-05-08 05:54 52.51476 4.97778 32129 ft 466 kts 287°
2026-05-08 05:54 52.55682 4.77663 32125 ft 467 kts 289°
2026-05-08 05:55 52.60342 4.57618 32122 ft 467 kts 289°
2026-05-08 05:55 52.64874 4.37630 32122 ft 467 kts 288°
2026-05-08 05:56 52.69359 4.17584 32137 ft 467 kts 288°
2026-05-08 05:56 52.73806 3.97530 32120 ft 466 kts 288°
2026-05-08 05:57 52.78228 3.77397 32117 ft 466 kts 288°
2026-05-08 05:57 52.82632 3.57143 32118 ft 466 kts 288°
2026-05-08 05:58 52.86982 3.36940 32113 ft 467 kts 288°
2026-05-08 05:58 52.91308 3.16645 32110 ft 467 kts 287°
2026-05-08 05:59 52.94240 2.95770 32127 ft 466 kts 280°
2026-05-08 05:59 52.96952 2.74727 32081 ft 468 kts 280°
2026-05-08 06:00 52.99673 2.53564 32125 ft 467 kts 280°
2026-05-08 06:00 53.02343 2.32457 32119 ft 468 kts 280°
2026-05-08 06:01 53.04975 2.11333 32118 ft 468 kts 280°
2026-05-08 06:01 53.07585 1.90097 32120 ft 468 kts 279°
2026-05-08 06:02 53.10154 1.68885 32118 ft 468 kts 279°
2026-05-08 06:02 53.12681 1.47680 32127 ft 468 kts 279°
2026-05-08 06:03 53.15179 1.26376 32119 ft 469 kts 279°
2026-05-08 06:03 53.17640 1.05034 32114 ft 469 kts 279°
2026-05-08 06:04 53.20053 0.83766 32113 ft 469 kts 279°
2026-05-08 06:04 53.22442 0.62359 32108 ft 469 kts 278°
2026-05-08 06:05 53.24795 0.40921 32106 ft 469 kts 278°
2026-05-08 06:05 53.27088 0.19458 32091 ft 469 kts 278°
2026-05-08 06:06 53.29340 -0.01957 32105 ft 468 kts 278°
2026-05-08 06:06 53.31572 -0.23560 32083 ft 468 kts 278°
2026-05-08 06:07 53.33746 -0.44987 32067 ft 467 kts 278°
2026-05-08 06:07 53.35881 -0.66409 32064 ft 467 kts 277°
2026-05-08 06:08 53.37949 -0.87777 32067 ft 466 kts 277°
2026-05-08 06:08 53.40039 -1.09157 32086 ft 466 kts 277°
2026-05-08 06:09 53.42050 -1.30644 32052 ft 465 kts 277°
2026-05-08 06:09 53.44046 -1.52008 32094 ft 464 kts 277°
2026-05-08 06:10 53.45992 -1.73403 32058 ft 463 kts 277°
2026-05-08 06:10 53.47890 -1.94901 32064 ft 463 kts 277°
2026-05-08 06:11 53.49720 -2.16248 32054 ft 462 kts 278°
2026-05-08 06:11 53.51526 -2.37606 32051 ft 461 kts 278°
2026-05-08 06:12 53.53298 -2.58985 32052 ft 460 kts 278°
2026-05-08 06:12 53.55019 -2.80234 32083 ft 457 kts 278°
2026-05-08 06:13 53.56686 -3.01287 32041 ft 455 kts 278°
2026-05-08 06:13 53.58319 -3.22397 32049 ft 452 kts 277°
2026-05-08 06:14 53.59901 -3.43340 32039 ft 449 kts 277°
2026-05-08 06:14 53.61439 -3.64166 32048 ft 447 kts 277°
2026-05-08 06:15 53.62407 -3.84964 32084 ft 444 kts 274°
2026-05-08 06:15 53.62827 -3.95242 31973 ft 445 kts 274°
2026-05-08 06:15 53.63246 -4.05662 32037 ft 443 kts 274°
2026-05-08 06:15 53.63638 -4.15908 32163 ft 441 kts 273°
2026-05-08 06:16 53.64024 -4.26291 32033 ft 443 kts 273°
2026-05-08 06:16 53.64767 -4.47084 32039 ft 442 kts 272°
2026-05-08 06:17 53.65808 -4.77979 32073 ft 441 kts 272°
2026-05-08 06:17 53.66486 -4.98684 32047 ft 439 kts 272°
2026-05-08 06:18 53.67137 -5.19173 32042 ft 438 kts 271°
2026-05-08 06:18 53.67716 -5.39559 32033 ft 436 kts 271°
2026-05-08 06:19 53.67212 -5.59942 32011 ft 434 kts 261°
2026-05-08 06:19 53.65501 -5.79969 32045 ft 432 kts 261°
2026-05-08 06:20 53.63787 -6.00094 32023 ft 433 kts 261°
2026-05-08 06:20 53.62049 -6.20093 32027 ft 433 kts 261°
2026-05-08 06:21 53.60268 -6.40177 32037 ft 433 kts 261°
2026-05-08 06:21 53.58459 -6.60176 32043 ft 432 kts 261°
2026-05-08 06:22 53.56613 -6.80206 32020 ft 431 kts 260°
2026-05-08 06:22 53.54746 -7.00080 32009 ft 430 kts 260°
2026-05-08 06:23 53.52855 -7.19842 32514 ft 429 kts 260°
2026-05-08 06:23 53.51898 -7.29717 33554 ft 419 kts 259°
2026-05-08 06:23 53.50965 -7.39253 34009 ft 417 kts 259°
2026-05-08 06:24 53.49060 -7.58478 34010 ft 414 kts 259°
2026-05-08 06:24 53.47144 -7.77486 34015 ft 413 kts 259°
2026-05-08 06:25 53.45198 -7.96476 34005 ft 412 kts 259°
2026-05-08 06:25 53.43229 -8.15389 34004 ft 412 kts 259°
2026-05-08 06:26 53.41560 -8.31178 34018 ft 412 kts 258°
2026-05-08 06:26 53.39531 -8.50101 34007 ft 412 kts 258°
2026-05-08 06:27 53.37484 -8.68900 34011 ft 412 kts 258°
2026-05-08 06:27 53.35388 -8.87864 34003 ft 413 kts 257°
2026-05-08 06:28 53.33275 -9.06683 34022 ft 412 kts 257°
2026-05-08 06:28 53.31127 -9.25528 34014 ft 412 kts 257°
2026-05-08 06:29 53.28948 -9.44371 34017 ft 412 kts 256°
2026-05-08 06:29 53.26746 -9.63136 34034 ft 412 kts 256°
2026-05-08 06:30 53.24514 -9.81888 34037 ft 412 kts 256°
2026-05-08 06:30 53.22288 -10.00329 34040 ft 412 kts 256°
2026-05-08 06:31 53.20000 -10.19026 34039 ft 412 kts 256°
2026-05-08 06:31 53.17680 -10.37720 34043 ft 412 kts 255°
2026-05-08 06:32 53.15325 -10.56444 34041 ft 412 kts 255°
2026-05-08 06:32 53.12949 -10.75075 34044 ft 412 kts 255°
2026-05-08 06:33 53.10532 -10.93785 34046 ft 412 kts 255°
2026-05-08 06:33 53.08098 -11.12376 34046 ft 412 kts 255°
2026-05-08 06:34 53.05621 -11.31056 34070 ft 413 kts 254°
2026-05-08 06:34 53.03123 -11.49645 34050 ft 413 kts 254°
2026-05-08 06:35 53.00592 -11.68254 34052 ft 412 kts 254°
2026-05-08 06:35 52.98038 -11.86785 34043 ft 413 kts 254°
2026-05-08 06:36 52.95445 -12.05375 34049 ft 413 kts 253°
2026-05-08 06:36 52.92830 -12.23892 34068 ft 413 kts 253°
2026-05-08 06:37 52.90180 -12.42428 34030 ft 415 kts 253°
2026-05-08 06:37 52.87497 -12.60974 34060 ft 414 kts 253°
2026-05-08 06:38 52.84804 -12.79373 34166 ft 412 kts 253°
2026-05-08 06:38 52.82061 -12.97881 34168 ft 413 kts 253°
2026-05-08 06:39 52.80670 -13.07180 34057 ft 415 kts 253°
2026-05-08 06:39 52.79288 -13.16374 34028 ft 417 kts 252°
2026-05-08 06:39 52.76465 -13.34994 34020 ft 417 kts 252°
2026-05-08 06:40 52.73615 -13.53569 34046 ft 416 kts 252°
2026-05-08 06:40 52.70747 -13.72057 34078 ft 416 kts 252°
2026-05-08 06:41 52.67858 -13.90467 34066 ft 417 kts 252°
2026-05-08 06:41 52.64929 -14.08917 34022 ft 418 kts 252°
2026-05-08 06:42 52.61974 -14.27342 34107 ft 417 kts 251°
2026-05-08 06:42 52.58970 -14.45857 34098 ft 419 kts 251°
2026-05-08 06:43 52.55933 -14.64373 34051 ft 421 kts 251°
2026-05-08 06:43 52.52848 -14.82996 34068 ft 423 kts 251°
2026-05-08 06:44 52.50711 -15.02098 34081 ft 433 kts 265°
2026-05-08 06:44 52.52588 -15.21966 34078 ft 444 kts 276°
2026-05-08 06:45 52.55035 -15.41915 34076 ft 447 kts 276°
2026-05-08 06:45 52.57401 -15.62005 34020 ft 450 kts 275°
2026-05-08 06:46 52.59751 -15.82288 34082 ft 450 kts 275°
2026-05-08 06:46 52.62056 -16.02508 34094 ft 449 kts 275°
2026-05-08 06:47 52.64333 -16.22803 34041 ft 452 kts 275°
2026-05-08 06:47 52.66575 -16.43121 34084 ft 454 kts 276°
2026-05-08 06:48 52.68805 -16.63661 34094 ft 456 kts 276°
2026-05-08 06:48 52.71011 -16.84338 34088 ft 459 kts 276°
2026-05-08 06:49 52.73189 -17.05111 34100 ft 461 kts 276°
2026-05-08 06:49 52.75355 -17.26139 34040 ft 465 kts 276°
2026-05-08 06:50 52.76415 -17.36572 34147 ft 463 kts 276°
2026-05-08 06:50 52.77480 -17.47162 34105 ft 465 kts 276°
2026-05-08 06:50 52.79581 -17.68322 34111 ft 466 kts 276°
2026-05-08 06:51 52.81634 -17.89406 34112 ft 467 kts 276°
2026-05-08 06:51 52.83665 -18.10667 34134 ft 467 kts 276°
2026-05-08 06:52 52.85651 -18.31884 34194 ft 468 kts 277°
2026-05-08 06:52 52.87617 -18.53312 34107 ft 471 kts 277°
2026-05-08 06:53 52.89535 -18.74638 34118 ft 471 kts 276°
2026-05-08 06:53 52.91424 -18.96103 34129 ft 470 kts 277°
2026-05-08 06:54 52.93270 -19.17537 34132 ft 469 kts 277°
2026-05-08 06:54 52.95083 -19.39042 34138 ft 469 kts 277°
2026-05-08 06:55 52.96837 -19.60344 34128 ft 469 kts 277°
2026-05-08 06:55 52.98574 -19.81903 34151 ft 468 kts 277°
2026-05-08 06:56 53.00181 -20.03336 34166 ft 468 kts 275°
2026-05-08 06:56 53.01033 -20.24802 34155 ft 468 kts 275°
2026-05-08 06:57 53.01856 -20.46406 34172 ft 469 kts 275°
2026-05-08 06:57 53.02665 -20.68097 34185 ft 470 kts 274°
2026-05-08 06:58 53.03432 -20.89786 34183 ft 472 kts 275°
2026-05-08 06:58 53.04163 -21.11560 34224 ft 473 kts 274°
2026-05-08 06:59 53.04859 -21.33521 34245 ft 474 kts 274°
2026-05-08 06:59 53.05512 -21.55438 34169 ft 477 kts 275°
2026-05-08 07:00 53.06131 -21.77511 34212 ft 477 kts 275°
2026-05-08 07:00 53.06703 -21.99392 34175 ft 479 kts 275°
2026-05-08 07:01 53.07239 -22.21484 34268 ft 478 kts 275°
2026-05-08 07:01 53.07735 -22.43577 34200 ft 480 kts 275°
2026-05-08 07:02 53.08192 -22.65791 34222 ft 480 kts 275°
2026-05-08 07:02 53.08606 -22.87947 34266 ft 480 kts 275°
2026-05-08 07:03 53.08982 -23.10222 34259 ft 480 kts 275°
2026-05-08 07:03 53.09315 -23.32492 34224 ft 482 kts 275°
2026-05-08 07:04 53.09607 -23.54775 34215 ft 481 kts 275°
2026-05-08 07:04 53.09857 -23.77002 34225 ft 482 kts 275°
2026-05-08 07:05 53.10065 -23.99259 34230 ft 482 kts 275°
2026-05-08 07:05 53.10232 -24.21553 34273 ft 480 kts 276°
2026-05-08 07:06 53.10340 -24.40032 34244 ft 481 kts 276°
2026-05-08 07:06 53.10443 -24.66010 34274 ft 481 kts 275°
2026-05-08 07:07 53.10480 -24.84629 34279 ft 480 kts 276°
2026-05-08 07:07 53.10486 -25.10488 34267 ft 481 kts 276°
2026-05-08 07:08 53.10454 -25.29065 34316 ft 479 kts 277°
2026-05-08 07:08 53.10380 -25.51266 34415 ft 477 kts 276°
2026-05-08 07:09 53.10266 -25.73371 34298 ft 481 kts 276°
2026-05-08 07:09 53.10105 -25.95671 34304 ft 479 kts 277°
2026-05-08 07:10 53.09908 -26.17800 34367 ft 477 kts 277°
2026-05-08 07:10 53.09796 -26.28777 34254 ft 480 kts 277°
2026-05-08 07:10 53.09669 -26.39926 34297 ft 477 kts 278°
2026-05-08 07:11 53.09389 -26.61968 34326 ft 476 kts 278°
2026-05-08 07:11 53.09072 -26.83954 34321 ft 475 kts 277°
2026-05-08 07:12 53.08712 -27.05948 34327 ft 475 kts 277°
2026-05-08 07:12 53.08313 -27.27922 34333 ft 475 kts 277°
2026-05-08 07:13 53.07872 -27.49893 34248 ft 475 kts 278°
2026-05-08 07:13 53.07638 -27.60775 34384 ft 473 kts 278°
2026-05-08 07:13 53.07394 -27.71635 34409 ft 472 kts 278°
2026-05-08 07:14 53.06875 -27.93685 34355 ft 475 kts 278°
2026-05-08 07:14 53.06315 -28.15509 34363 ft 475 kts 278°
2026-05-08 07:15 53.05715 -28.37459 34369 ft 476 kts 277°
2026-05-08 07:15 53.05072 -28.59466 34362 ft 477 kts 277°
2026-05-08 07:16 53.04388 -28.81400 34364 ft 475 kts 276°
2026-05-08 07:16 53.03665 -29.03374 34376 ft 475 kts 276°
2026-05-08 07:17 53.02902 -29.25318 34344 ft 475 kts 275°
2026-05-08 07:17 53.02103 -29.47082 34404 ft 474 kts 275°
2026-05-08 07:18 53.01264 -29.68889 34490 ft 472 kts 275°
2026-05-08 07:18 53.00389 -29.90688 34334 ft 474 kts 274°
2026-05-08 07:19 52.99840 -30.12405 34372 ft 469 kts 277°
2026-05-08 07:19 52.99687 -30.33936 34329 ft 469 kts 276°
2026-05-08 07:20 52.99571 -30.44791 34442 ft 466 kts 276°
2026-05-08 07:20 52.99444 -30.55490 34488 ft 466 kts 276°
2026-05-08 07:20 52.99159 -30.77072 34526 ft 467 kts 276°
2026-05-08 07:21 52.99005 -30.87834 34364 ft 471 kts 275°
2026-05-08 07:21 52.98839 -30.98642 34394 ft 471 kts 274°
2026-05-08 07:21 52.98470 -31.20350 34481 ft 471 kts 274°
2026-05-08 07:22 52.98064 -31.42223 34430 ft 474 kts 274°
2026-05-08 07:22 52.97618 -31.63881 34467 ft 472 kts 274°
2026-05-08 07:23 52.97132 -31.85654 34462 ft 471 kts 273°
2026-05-08 07:23 52.96605 -32.07405 34410 ft 467 kts 274°
2026-05-08 07:24 52.96050 -32.28598 34434 ft 453 kts 274°
2026-05-08 07:24 52.95480 -32.49359 34437 ft 452 kts 274°
2026-05-08 07:25 52.94866 -32.70418 34442 ft 461 kts 274°
2026-05-08 07:26 52.93846 -33.02386 34444 ft 462 kts 273°
2026-05-08 07:26 52.93124 -33.23453 34440 ft 450 kts 274°
2026-05-08 07:27 52.92395 -33.43897 34432 ft 441 kts 274°
2026-05-08 07:27 52.91642 -33.64204 34443 ft 445 kts 274°
2026-05-08 07:28 52.90834 -33.84931 34338 ft 454 kts 274°
2026-05-08 07:28 52.90411 -33.95305 34462 ft 453 kts 274°
2026-05-08 07:28 52.89980 -34.05684 34436 ft 452 kts 274°
2026-05-08 07:29 52.89095 -34.26303 34474 ft 444 kts 274°
2026-05-08 07:29 52.88195 -34.46598 34426 ft 441 kts 273°
2026-05-08 07:30 52.87266 -34.66808 34408 ft 444 kts 272°
2026-05-08 07:30 52.86287 -34.87313 34475 ft 449 kts 272°
2026-05-08 07:31 52.85261 -35.07961 34443 ft 452 kts 271°
2026-05-08 07:31 52.84193 -35.28698 34431 ft 450 kts 271°
2026-05-08 07:32 52.83106 -35.49098 34351 ft 442 kts 270°
2026-05-08 07:32 52.82565 -35.59054 34468 ft 439 kts 270°
2026-05-08 07:32 52.82006 -35.69217 34490 ft 442 kts 270°
2026-05-08 07:33 52.80853 -35.89654 34412 ft 452 kts 270°
2026-05-08 07:33 52.79640 -36.10401 34372 ft 453 kts 269°
2026-05-08 07:34 52.78395 -36.31024 34434 ft 444 kts 269°
2026-05-08 07:34 52.77144 -36.51267 34414 ft 441 kts 269°
2026-05-08 07:35 52.75866 -36.71403 34401 ft 445 kts 269°
2026-05-08 07:35 52.74534 -36.91795 34405 ft 452 kts 269°
2026-05-08 07:36 52.73145 -37.12452 34417 ft 451 kts 268°
2026-05-08 07:36 52.71742 -37.32774 34422 ft 440 kts 268°
2026-05-08 07:37 52.70332 -37.52775 34333 ft 442 kts 268°
2026-05-08 07:37 52.68866 -37.73066 34411 ft 448 kts 268°
2026-05-08 07:38 52.67349 -37.93501 34389 ft 449 kts 267°
2026-05-08 07:38 52.65807 -38.13777 34350 ft 441 kts 267°
2026-05-08 07:39 52.64271 -38.33573 34395 ft 436 kts 267°
2026-05-08 07:39 52.62684 -38.53614 34398 ft 446 kts 267°
2026-05-08 07:40 52.61026 -38.74035 34357 ft 452 kts 266°
2026-05-08 07:40 52.59336 -38.94374 34358 ft 445 kts 266°
2026-05-08 07:41 52.57639 -39.14412 34362 ft 439 kts 266°
2026-05-08 07:41 52.55931 -39.34203 34356 ft 439 kts 266°
2026-05-08 07:42 52.54165 -39.54268 34225 ft 449 kts 266°
2026-05-08 07:42 52.53262 -39.64333 34346 ft 449 kts 266°
2026-05-08 07:42 52.52336 -39.74577 34344 ft 450 kts 266°
2026-05-08 07:43 52.50465 -39.94994 34343 ft 452 kts 266°
2026-05-08 07:43 52.47082 -40.14981 34433 ft 457 kts 257°
2026-05-08 07:44 52.43117 -40.34807 34344 ft 459 kts 257°
2026-05-08 07:44 52.39150 -40.54628 34346 ft 457 kts 256°
2026-05-08 07:45 52.35157 -40.74375 34302 ft 458 kts 256°
2026-05-08 07:45 52.31131 -40.94081 34386 ft 456 kts 256°
2026-05-08 07:45 52.29099 -41.03961 34281 ft 458 kts 255°
2026-05-08 07:46 52.27076 -41.13739 34393 ft 457 kts 255°
2026-05-08 07:46 52.22975 -41.33426 34324 ft 460 kts 255°
2026-05-08 07:47 52.18808 -41.53232 34290 ft 462 kts 255°
2026-05-08 07:47 52.14610 -41.72983 34294 ft 465 kts 254°
2026-05-08 07:48 52.10323 -41.92962 34276 ft 464 kts 254°
2026-05-08 07:48 52.06076 -42.12564 34302 ft 461 kts 253°
2026-05-08 07:49 52.01756 -42.32309 34325 ft 459 kts 253°
2026-05-08 07:49 51.97470 -42.51721 34298 ft 457 kts 253°
2026-05-08 07:50 51.93161 -42.71053 34259 ft 457 kts 253°
2026-05-08 07:50 51.89528 -42.87219 34303 ft 454 kts 253°
2026-05-08 07:51 51.85188 -43.06364 34284 ft 455 kts 253°
2026-05-08 07:51 51.80797 -43.25559 34314 ft 453 kts 252°
2026-05-08 07:52 51.76414 -43.44549 34347 ft 451 kts 252°
2026-05-08 07:52 51.71975 -43.63614 34249 ft 453 kts 252°
2026-05-08 07:53 51.67526 -43.82546 34233 ft 453 kts 251°
2026-05-08 07:53 51.63024 -44.01544 34235 ft 453 kts 251°
2026-05-08 07:54 51.58505 -44.20440 34238 ft 453 kts 251°
2026-05-08 07:54 51.53953 -44.39315 34215 ft 453 kts 251°
2026-05-08 07:55 51.49370 -44.58153 34209 ft 454 kts 251°
2026-05-08 07:55 51.44759 -44.76943 34206 ft 454 kts 250°
2026-05-08 07:56 51.40094 -44.95796 34205 ft 454 kts 250°
2026-05-08 07:56 51.35423 -45.14509 34181 ft 454 kts 251°
2026-05-08 07:57 51.30717 -45.33202 34217 ft 452 kts 251°
2026-05-08 07:57 51.26013 -45.51737 34271 ft 448 kts 251°
2026-05-08 07:57 51.23645 -45.61012 34157 ft 450 kts 251°
2026-05-08 07:58 51.21306 -45.70130 34217 ft 448 kts 251°
2026-05-08 07:58 51.16556 -45.88543 34171 ft 447 kts 251°
2026-05-08 07:59 51.11820 -46.06745 34152 ft 445 kts 252°
2026-05-08 07:59 51.07076 -46.24848 34210 ft 441 kts 252°
2026-05-08 08:00 51.02323 -46.42836 34208 ft 441 kts 252°
2026-05-08 08:00 50.97530 -46.60834 34186 ft 440 kts 252°
2026-05-08 08:01 50.92741 -46.78675 34132 ft 441 kts 251°
2026-05-08 08:01 50.87918 -46.96505 34138 ft 440 kts 251°
2026-05-08 08:02 50.83084 -47.14237 34107 ft 439 kts 251°
2026-05-08 08:02 50.78231 -47.31907 34144 ft 437 kts 250°
2026-05-08 08:03 50.73417 -47.49299 34103 ft 426 kts 250°
2026-05-08 08:03 50.68699 -47.66225 34091 ft 420 kts 250°
2026-05-08 08:04 50.63917 -47.83271 34104 ft 428 kts 249°
2026-05-08 08:04 50.59048 -48.00488 34080 ft 435 kts 249°
2026-05-08 08:05 50.54113 -48.17804 34041 ft 432 kts 249°
2026-05-08 08:05 50.49230 -48.34813 33975 ft 424 kts 249°
2026-05-08 08:06 50.44410 -48.51499 34054 ft 422 kts 249°
2026-05-08 08:06 50.39465 -48.68505 33996 ft 431 kts 248°
2026-05-08 08:07 50.34468 -48.85542 34011 ft 432 kts 248°
2026-05-08 08:07 50.29465 -49.02484 33995 ft 423 kts 248°
2026-05-08 08:08 50.24557 -49.18998 33979 ft 417 kts 248°
2026-05-08 08:08 50.19611 -49.35536 33979 ft 422 kts 248°
2026-05-08 08:09 50.14568 -49.52279 33929 ft 433 kts 246°
2026-05-08 08:09 50.09401 -49.69306 33915 ft 437 kts 246°
2026-05-08 08:10 50.04242 -49.86194 33909 ft 429 kts 245°
2026-05-08 08:10 49.99234 -50.03024 33884 ft 426 kts 250°
2026-05-08 08:11 49.95130 -50.20263 33945 ft 430 kts 249°